Overview Statistics Trail Chart Weather Telemetry Raw packets
 

This is the latest recevied weather packets stored in our database for station/object SR3WXA. If no packets are shown the sender has not sent any weather packets the latest 10 day(s).

<< 94 95 96 97 98 99 100 >>
Time Temp. Humidity Pressure Rain* Wind** Luminosity Snow
1788266766 20° C 73% 1016.7 hPa 0 mm - 239 W/m² -
1788266527 20° C 74% 1016.7 hPa 0 mm - 784 W/m² -
1788266468 20° C 74% 1016.7 hPa 0 mm - 784 W/m² -
1788266166 20° C 74% 1016.7 hPa 0 mm - 229 W/m² -
1788265866 20° C 74% 1016.7 hPa 0 mm - 673 W/m² -
1788265634 19.44° C 76% 1016.7 hPa 0 mm - 287 W/m² -
1788265566 19.44° C 76% 1016.7 hPa 0 mm - 287 W/m² -
1788265316 19.44° C 76% 1016.8 hPa 0 mm - 234 W/m² -
1788265266 19.44° C 76% 1016.8 hPa 0 mm - 234 W/m² -
1788265034 18.89° C 76% 1016.8 hPa 0 mm - 503 W/m² -
1788264966 18.89° C 76% 1016.8 hPa 0 mm - 503 W/m² -
1788264623 19.44° C 76% 1016.8 hPa 0 mm - 151 W/m² -
1788264456 19.44° C 77% 1016.8 hPa 0 mm - 149 W/m² -
1788264322 19.44° C 77% 1016.8 hPa 0 mm - 149 W/m² -
1788264089 19.44° C 79% 1016.8 hPa 0 mm - 223 W/m² -
1788264027 19.44° C 79% 1016.8 hPa 0 mm - 223 W/m² -
1788263722 18.89° C 81% 1016.8 hPa 0 mm - 255 W/m² -
1788263504 18.89° C 81% 1016.8 hPa 0 mm - 301 W/m² -
1788263422 18.89° C 81% 1016.8 hPa 0 mm - 301 W/m² -
1788263187 18.33° C 82% 1016.8 hPa 0 mm - 257 W/m² -
1788263122 18.33° C 82% 1016.8 hPa 0 mm - 257 W/m² -
1788262892 18.33° C 85% 1016.8 hPa 0 mm - 657 W/m² -
1788262823 18.33° C 85% 1016.8 hPa 0 mm - 657 W/m² -
1788262522 17.78° C 86% 1016.8 hPa 0 mm - 624 W/m² -
1788262031 17.22° C 88% 1016.8 hPa 0 mm - 606 W/m² -

* Rain latest hour (hover to see other rain measurements)
** Current wind speed in m/s (hover to see current wind gust speed)